| time (UTC) | temp F | wind direction | speed MPH | gust MPH | rain 1hr in | rain 24hr in | rain mn in | humidity % | barometer mb |
| 20260905220026 | 87 | 360 | 0.0 | 0.0 | 0.04 | 0.05 | 0.05 | 80 | 1013.3 |
| 20260905215509 | 86 | 360 | 0.0 | 0.0 | 0.05 | 0.05 | 0.05 | 81 | 1013.2 |
| 20260905215011 | 86 | 360 | 0.0 | 1.0 | 0.05 | 0.05 | 0.05 | 80 | 1013.2 |
| 20260905214533 | 85 | 360 | 0.0 | 1.0 | 0.05 | 0.05 | 0.05 | 80 | 1013.2 |
| 20260905214018 | 85 | 327 | 0.0 | 2.0 | 0.05 | 0.05 | 0.05 | 78 | 1013.2 |
| 20260905213509 | 85 | 189 | 0.0 | 2.0 | 0.05 | 0.05 | 0.05 | 78 | 1013.1 |
| 20260905213030 | 85 | 286 | 0.0 | 4.0 | 0.04 | 0.04 | 0.04 | 74 | 1013.2 |
| 20260905212519 | 85 | 290 | 0.0 | 9.0 | 0.04 | 0.04 | 0.04 | 75 | 1013.3 |
| 20260905212008 | 85 | 272 | 0.0 | 9.0 | 0.03 | 0.03 | 0.03 | 75 | 1013.5 |
| 20260905211531 | 86 | 236 | 1.0 | 8.0 | 0.03 | 0.03 | 0.03 | 78 | 1013.4 |
| 20260905211017 | 86 | 331 | 0.0 | 3.0 | 0.03 | 0.03 | 0.03 | 76 | 1013.2 |
| 20260905210507 | 87 | 36 | 0.0 | 4.0 | 0.03 | 0.03 | 0.03 | 74 | 1013.3 |
| 20260905210023 | 87 | 323 | 0.0 | 7.0 | 0.01 | 0.01 | 0.01 | 70 | 1013.4 |
| 20260905205510 | 88 | 17 | 2.0 | 10.0 | 0.00 | 0.00 | 0.00 | 67 | 1013.2 |
| 20260905205013 | 88 | 23 | 1.0 | 12.0 | 0.00 | 0.00 | 0.00 | 67 | 1013.2 |
| 20260905204519 | 88 | 340 | 4.0 | 12.0 | 0.00 | 0.00 | 0.00 | 68 | 1013.3 |
| 20260905204012 | 88 | 10 | 6.0 | 17.0 | 0.00 | 0.00 | 0.00 | 67 | 1013.3 |
| 20260905203515 | 88 | 328 | 10.0 | 18.0 | 0.00 | 0.00 | 0.00 | 65 | 1013.4 |
| 20260905203031 | 89 | 352 | 8.0 | 20.0 | 0.00 | 0.00 | 0.00 | 65 | 1013.3 |
| 20260905202510 | 89 | 329 | 9.0 | 20.0 | 0.00 | 0.00 | 0.00 | 63 | 1013.3 |
| 20260905202013 | 90 | 322 | 10.0 | 18.0 | 0.00 | 0.00 | 0.00 | 60 | 1013.3 |
| 20260905201534 | 93 | 334 | 10.0 | 18.0 | 0.00 | 0.00 | 0.00 | 59 | 1013.2 |
| 20260905201018 | 95 | 360 | 8.0 | 14.0 | 0.00 | 0.00 | 0.00 | 59 | 1013.1 |
| 20260905200513 | 95 | 342 | 6.0 | 12.0 | 0.00 | 0.00 | 0.00 | 60 | 1013.1 |
| 20260905200034 | 95 | 296 | 1.0 | 12.0 | 0.00 | 0.00 | 0.00 | 60 | 1013.1 |
| 20260905195510 | 95 | 332 | 3.0 | 13.0 | 0.00 | 0.00 | 0.00 | 58 | 1013.3 |
| 20260905195012 | 95 | 334 | 4.0 | 13.0 | 0.00 | 0.00 | 0.00 | 58 | 1013.2 |
| 20260905194525 | 96 | 295 | 1.0 | 13.0 | 0.00 | 0.00 | 0.00 | 58 | 1013.2 |
| 20260905194014 | 97 | 279 | 6.0 | 13.0 | 0.00 | 0.00 | 0.00 | 56 | 1013.3 |
| 20260905193517 | 98 | 271 | 6.0 | 11.0 | 0.00 | 0.00 | 0.00 | 57 | 1013.3 |
| 20260905193032 | 98 | 326 | 3.0 | 13.0 | 0.00 | 0.00 | 0.00 | 57 | 1013.3 |
| 20260905192515 | 98 | 257 | 8.0 | 13.0 | 0.00 | 0.00 | 0.00 | 57 | 1013.2 |
| 20260905192013 | 97 | 193 | 4.0 | 13.0 | 0.00 | 0.00 | 0.00 | 58 | 1013.4 |
| 20260905191530 | 97 | 265 | 2.0 | 11.0 | 0.00 | 0.00 | 0.00 | 57 | 1013.5 |
| 20260905191012 | 96 | 286 | 2.0 | 12.0 | 0.00 | 0.00 | 0.00 | 62 | 1013.5 |
| 20260905190515 | 96 | 241 | 4.0 | 12.0 | 0.00 | 0.00 | 0.00 | 58 | 1013.6 |
| 20260905190045 | 96 | 208 | 5.0 | 12.0 | 0.00 | 0.00 | 0.00 | 63 | 1013.7 |
| 20260905185515 | 96 | 203 | 5.0 | 12.0 | 0.00 | 0.00 | 0.00 | 64 | 1013.8 |
| 20260905185015 | 95 | 218 | 4.0 | 11.0 | 0.00 | 0.00 | 0.00 | 63 | 1013.7 |
| 20260905184541 | 95 | 232 | 4.0 | 11.0 | 0.00 | 0.00 | 0.00 | 63 | 1013.7 |
| 20260905184011 | 95 | 266 | 6.0 | 11.0 | 0.00 | 0.00 | 0.00 | 60 | 1013.8 |
| 20260905183513 | 96 | 252 | 6.0 | 14.0 | 0.00 | 0.00 | 0.00 | 61 | 1013.8 |
| 20260905183031 | 96 | 282 | 3.0 | 14.0 | 0.00 | 0.00 | 0.00 | 60 | 1013.9 |
| 20260905182502 | 96 | 229 | 2.0 | 11.0 | 0.00 | 0.00 | 0.00 | 62 | 1014.0 |
| 20260905182002 | 96 | 269 | 2.0 | 11.0 | 0.00 | 0.00 | 0.00 | 64 | 1014.1 |
| 20260905181508 | 96 | 232 | 6.0 | 11.0 | 0.00 | 0.00 | 0.00 | 64 | 1014.1 |
| 20260905181004 | 96 | 228 | 4.0 | 11.0 | 0.00 | 0.00 | 0.00 | 61 | 1014.1 |
| 20260905180504 | 96 | 222 | 1.0 | 8.0 | 0.00 | 0.00 | 0.00 | 64 | 1014.1 |
| 20260905180009 | 96 | 234 | 3.0 | 13.0 | 0.00 | 0.00 | 0.00 | 62 | 1014.2 |
| 20260905175504 | 95 | 207 | 5.0 | 13.0 | 0.00 | 0.00 | 0.00 | 62 | 1014.2 |
| 20260905175010 | 95 | 264 | 3.0 | 11.0 | 0.00 | 0.00 | 0.00 | 63 | 1014.3 |
| 20260905174525 | 95 | 262 | 5.0 | 11.0 | 0.00 | 0.00 | 0.00 | 62 | 1014.4 |
| 20260905174002 | 95 | 219 | 2.0 | 11.0 | 0.00 | 0.00 | 0.00 | 68 | 1014.4 |
| 20260905173506 | 94 | 250 | 4.0 | 10.0 | 0.00 | 0.00 | 0.00 | 66 | 1014.4 |
| 20260905173022 | 94 | 235 | 1.0 | 10.0 | 0.00 | 0.00 | 0.00 | 65 | 1014.6 |
| 20260905172510 | 94 | 259 | 0.0 | 10.0 | 0.00 | 0.00 | 0.00 | 66 | 1014.7 |
| 20260905172003 | 94 | 236 | 3.0 | 9.0 | 0.00 | 0.00 | 0.00 | 65 | 1014.8 |
| 20260905171503 | 94 | 226 | 0.0 | 10.0 | 0.00 | 0.00 | 0.00 | 64 | 1014.8 |
| 20260905171002 | 94 | 229 | 5.0 | 10.0 | 0.00 | 0.00 | 0.00 | 66 | 1014.9 |
| 20260905170505 | 94 | 240 | 2.0 | 11.0 | 0.00 | 0.00 | 0.00 | 64 | 1015.0 |
| 20260905170011 | 94 | 238 | 0.0 | 11.0 | 0.00 | 0.00 | 0.00 | 65 | 1015.1 |
| 20260905165504 | 94 | 258 | 3.0 | 9.0 | 0.00 | 0.00 | 0.00 | 70 | 1015.2 |
| 20260905165006 | 94 | 176 | 3.0 | 7.0 | 0.00 | 0.00 | 0.00 | 68 | 1015.3 |
| 20260905164513 | 94 | 214 | 0.0 | 11.0 | 0.00 | 0.00 | 0.00 | 68 | 1015.4 |
| 20260905164006 | 93 | 240 | 3.0 | 11.0 | 0.00 | 0.00 | 0.00 | 71 | 1015.6 |
| 20260905163509 | 93 | 232 | 2.0 | 9.0 | 0.00 | 0.00 | 0.00 | 71 | 1015.6 |
| 20260905163008 | 93 | 248 | 2.0 | 7.0 | 0.00 | 0.00 | 0.00 | 70 | 1015.6 |
| 20260905162510 | 93 | 241 | 1.0 | 6.0 | 0.00 | 0.00 | 0.00 | 69 | 1015.7 |
| 20260905162010 | 93 | 217 | 1.0 | 6.0 | 0.00 | 0.00 | 0.00 | 70 | 1015.7 |
| 20260905161527 | 93 | 267 | 1.0 | 6.0 | 0.00 | 0.00 | 0.00 | 71 | 1015.8 |
| 20260905161007 | 93 | 237 | 1.0 | 6.0 | 0.00 | 0.00 | 0.00 | 71 | 1015.8 |
| 20260905160511 | 93 | 214 | 1.0 | 6.0 | 0.00 | 0.00 | 0.00 | 72 | 1015.8 |
| 20260905160015 | 92 | 227 | 1.0 | 5.0 | 0.00 | 0.00 | 0.00 | 73 | 1015.9 |
| 20260905155504 | 92 | 213 | 0.0 | 5.0 | 0.00 | 0.00 | 0.00 | 72 | 1016.0 |
| 20260905155003 | 91 | 207 | 0.0 | 4.0 | 0.00 | 0.00 | 0.00 | 73 | 1016.0 |
| 20260905154513 | 91 | 261 | 0.0 | 5.0 | 0.00 | 0.00 | 0.00 | 77 | 1016.1 |
| 20260905154006 | 91 | 235 | 0.0 | 5.0 | 0.00 | 0.00 | 0.00 | 74 | 1016.3 |
| 20260905153504 | 91 | 198 | 1.0 | 7.0 | 0.00 | 0.00 | 0.00 | 77 | 1016.2 |
| 20260905153022 | 91 | 269 | 1.0 | 7.0 | 0.00 | 0.00 | 0.00 | 76 | 1016.2 |
| 20260905152508 | 90 | 243 | 0.0 | 6.0 | 0.00 | 0.00 | 0.00 | 78 | 1016.1 |
| 20260905152012 | 90 | 226 | 1.0 | 6.0 | 0.00 | 0.00 | 0.00 | 78 | 1016.2 |
| 20260905151515 | 89 | 191 | 0.0 | 5.0 | 0.00 | 0.00 | 0.00 | 80 | 1016.1 |
| 20260905151009 | 89 | 253 | 0.0 | 6.0 | 0.00 | 0.00 | 0.00 | 77 | 1016.2 |
| 20260905150513 | 89 | 236 | 0.0 | 6.0 | 0.00 | 0.00 | 0.00 | 80 | 1016.2 |
| 20260905150009 | 89 | 264 | 0.0 | 2.0 | 0.00 | 0.00 | 0.00 | 82 | 1016.2 |
| 20260905145508 | 88 | 240 | 0.0 | 2.0 | 0.00 | 0.00 | 0.00 | 82 | 1016.0 |
| 20260905145011 | 87 | 177 | 0.0 | 3.0 | 0.00 | 0.00 | 0.00 | 83 | 1016.0 |
| 20260905144516 | 87 | 230 | 0.0 | 3.0 | 0.00 | 0.00 | 0.00 | 83 | 1016.0 |
| 20260905144006 | 86 | 206 | 0.0 | 3.0 | 0.00 | 0.00 | 0.00 | 85 | 1016.1 |
| 20260905143510 | 86 | 214 | 0.0 | 4.0 | 0.00 | 0.00 | 0.00 | 85 | 1016.1 |
| 20260905143015 | 85 | 234 | 0.0 | 4.0 | 0.00 | 0.00 | 0.00 | 84 | 1016.1 |
| 20260905142503 | 85 | 257 | 0.0 | 6.0 | 0.00 | 0.00 | 0.00 | 85 | 1016.0 |
| 20260905142009 | 85 | 196 | 1.0 | 6.0 | 0.00 | 0.00 | 0.00 | 86 | 1015.9 |
| 20260905141526 | 85 | 225 | 0.0 | 5.0 | 0.00 | 0.00 | 0.00 | 88 | 1016.0 |
| 20260905141010 | 84 | 299 | 0.0 | 5.0 | 0.00 | 0.00 | 0.00 | 87 | 1016.0 |
| 20260905140504 | 84 | 229 | 1.0 | 5.0 | 0.00 | 0.00 | 0.00 | 89 | 1016.0 |
| 20260905140024 | 83 | 232 | 0.0 | 3.0 | 0.00 | 0.00 | 0.00 | 90 | 1016.1 |
| 20260905135513 | 83 | 219 | 0.0 | 3.0 | 0.00 | 0.00 | 0.00 | 91 | 1016.1 |
| 20260905135006 | 83 | 227 | 0.0 | 2.0 | 0.00 | 0.00 | 0.00 | 92 | 1016.0 |
| 20260905134517 | 82 | 145 | 0.0 | 2.0 | 0.00 | 0.00 | 0.00 | 92 | 1016.0 |
| 20260905134015 | 82 | 209 | 0.0 | 2.0 | 0.00 | 0.00 | 0.00 | 92 | 1016.0 |
| 20260905133503 | 81 | 205 | 0.0 | 4.0 | 0.00 | 0.00 | 0.00 | 93 | 1016.1 |
| 20260905133015 | 81 | 232 | 0.0 | 4.0 | 0.00 | 0.00 | 0.00 | 94 | 1016.0 |
| 20260905132504 | 80 | 231 | 0.0 | 4.0 | 0.00 | 0.00 | 0.00 | 95 | 1016.0 |
| 20260905132010 | 80 | 195 | 0.0 | 1.0 | 0.00 | 0.00 | 0.00 | 95 | 1016.0 |
| 20260905131520 | 80 | 165 | 0.0 | 0.0 | 0.00 | 0.00 | 0.00 | 95 | 1015.9 |
| 20260905131006 | 79 | 175 | 0.0 | 0.0 | 0.00 | 0.00 | 0.00 | 95 | 1016.0 |
| 20260905130514 | 79 | 16 | 0.0 | 0.0 | 0.00 | 0.00 | 0.00 | 95 | 1016.0 |
| 20260905130028 | 79 | 5 | 0.0 | 0.0 | 0.00 | 0.00 | 0.00 | 95 | 1016.1 |
| 20260905125508 | 78 | 5 | 0.0 | 0.0 | 0.00 | 0.00 | 0.00 | 95 | 1016.1 |
| 20260905125016 | 78 | 5 | 0.0 | 0.0 | 0.00 | 0.00 | 0.00 | 95 | 1016.0 |
| 20260905124528 | 78 | 5 | 0.0 | 0.0 | 0.00 | 0.00 | 0.00 | 95 | 1016.1 |
| 20260905124014 | 78 | 5 | 0.0 | 0.0 | 0.00 | 0.00 | 0.00 | 95 | 1016.1 |
| 20260905123507 | 77 | 211 | 0.0 | 0.0 | 0.00 | 0.00 | 0.00 | 95 | 1016.1 |
| 20260905123028 | 77 | 213 | 0.0 | 0.0 | 0.00 | 0.00 | 0.00 | 95 | 1015.9 |
| 20260905122516 | 77 | 213 | 0.0 | 0.0 | 0.00 | 0.00 | 0.00 | 95 | 1016.0 |
| 20260905122008 | 77 | 213 | 0.0 | 0.0 | 0.00 | 0.00 | 0.00 | 95 | 1015.9 |
| 20260905121516 | 77 | 213 | 0.0 | 0.0 | 0.00 | 0.00 | 0.00 | 95 | 1015.7 |
| 20260905121008 | 76 | 182 | 0.0 | 0.0 | 0.00 | 0.00 | 0.00 | 95 | 1015.7 |
| 20260905120510 | 76 | 181 | 0.0 | 0.0 | 0.00 | 0.00 | 0.00 | 95 | 1015.7 |
| 20260905120021 | 76 | 181 | 0.0 | 0.0 | 0.00 | 0.00 | 0.00 | 95 | 1015.7 |
| 20260905115511 | 75 | 179 | 0.0 | 0.0 | 0.00 | 0.00 | 0.00 | 95 | 1015.6 |
| 20260905115011 | 75 | 179 | 0.0 | 0.0 | 0.00 | 0.00 | 0.00 | 94 | 1015.6 |
| 20260905114517 | 75 | 178 | 0.0 | 0.0 | 0.00 | 0.00 | 0.00 | 94 | 1015.6 |
| 20260905114008 | 75 | 178 | 0.0 | 0.0 | 0.00 | 0.00 | 0.00 | 94 | 1015.4 |
| 20260905113514 | 75 | 178 | 0.0 | 0.0 | 0.00 | 0.00 | 0.00 | 94 | 1015.4 |
| 20260905113031 | 74 | 178 | 0.0 | 0.0 | 0.00 | 0.00 | 0.00 | 94 | 1015.4 |
| 20260905112510 | 74 | 178 | 0.0 | 0.0 | 0.00 | 0.00 | 0.00 | 94 | 1015.4 |
| 20260905112014 | 74 | 178 | 0.0 | 0.0 | 0.00 | 0.00 | 0.00 | 94 | 1015.5 |
| 20260905111539 | 74 | 178 | 0.0 | 0.0 | 0.00 | 0.00 | 0.00 | 94 | 1015.4 |
| 20260905111008 | 75 | 178 | 0.0 | 0.0 | 0.00 | 0.00 | 0.00 | 94 | 1015.4 |
| 20260905110507 | 74 | 178 | 0.0 | 0.0 | 0.00 | 0.00 | 0.00 | 94 | 1015.4 |
| 20260905110023 | 75 | 178 | 0.0 | 0.0 | 0.00 | 0.00 | 0.00 | 93 | 1015.4 |
| 20260905105511 | 75 | 178 | 0.0 | 0.0 | 0.00 | 0.00 | 0.00 | 93 | 1015.3 |
| 20260905105010 | 75 | 178 | 0.0 | 0.0 | 0.00 | 0.00 | 0.00 | 93 | 1015.2 |
| 20260905104534 | 75 | 178 | 0.0 | 0.0 | 0.00 | 0.00 | 0.00 | 93 | 1015.2 |
| 20260905104010 | 75 | 178 | 0.0 | 0.0 | 0.00 | 0.00 | 0.00 | 93 | 1015.1 |
| 20260905103512 | 75 | 178 | 0.0 | 0.0 | 0.00 | 0.00 | 0.00 | 93 | 1015.1 |
| 20260905103025 | 75 | 178 | 0.0 | 0.0 | 0.00 | 0.00 | 0.00 | 93 | 1015.2 |
| 20260905102514 | 75 | 178 | 0.0 | 0.0 | 0.00 | 0.00 | 0.00 | 93 | 1015.2 |
| 20260905102015 | 75 | 178 | 0.0 | 0.0 | 0.00 | 0.00 | 0.00 | 93 | 1015.2 |
| 20260905101524 | 75 | 178 | 0.0 | 0.0 | 0.00 | 0.00 | 0.00 | 93 | 1015.2 |
| 20260905101013 | 75 | 178 | 0.0 | 0.0 | 0.00 | 0.00 | 0.00 | 93 | 1015.2 |
| 20260905100515 | 75 | 178 | 0.0 | 0.0 | 0.00 | 0.00 | 0.00 | 93 | 1015.1 |
| 20260905100033 | 75 | 178 | 0.0 | 0.0 | 0.00 | 0.00 | 0.00 | 93 | 1015.2 |
| 20260905095507 | 75 | 178 | 0.0 | 0.0 | 0.00 | 0.00 | 0.00 | 93 | 1015.1 |
| 20260905095009 | 75 | 179 | 0.0 | 0.0 | 0.00 | 0.00 | 0.00 | 93 | 1015.0 |
| 20260905094527 | 75 | 178 | 0.0 | 0.0 | 0.00 | 0.00 | 0.00 | 93 | 1015.0 |
| 20260905094008 | 75 | 178 | 0.0 | 0.0 | 0.00 | 0.00 | 0.00 | 93 | 1014.9 |
| 20260905093512 | 75 | 179 | 0.0 | 0.0 | 0.00 | 0.00 | 0.00 | 93 | 1015.0 |
| 20260905093030 | 75 | 178 | 0.0 | 0.0 | 0.00 | 0.00 | 0.00 | 93 | 1015.0 |
| 20260905092502 | 75 | 178 | 0.0 | 0.0 | 0.00 | 0.00 | 0.00 | 93 | 1015.0 |
| 20260905092004 | 75 | 178 | 0.0 | 0.0 | 0.00 | 0.00 | 0.00 | 93 | 1015.0 |
| 20260905091507 | 75 | 178 | 0.0 | 0.0 | 0.00 | 0.00 | 0.00 | 93 | 1014.9 |
| 20260905091007 | 75 | 178 | 0.0 | 0.0 | 0.00 | 0.00 | 0.00 | 93 | 1014.8 |
| 20260905090507 | 75 | 178 | 0.0 | 0.0 | 0.00 | 0.00 | 0.00 | 93 | 1014.9 |
| 20260905090003 | 75 | 178 | 0.0 | 0.0 | 0.00 | 0.00 | 0.00 | 93 | 1014.9 |
| 20260905085504 | 75 | 178 | 0.0 | 0.0 | 0.00 | 0.00 | 0.00 | 93 | 1014.8 |
| 20260905085008 | 75 | 178 | 0.0 | 0.0 | 0.00 | 0.00 | 0.00 | 93 | 1014.7 |
| 20260905084526 | 75 | 178 | 0.0 | 0.0 | 0.00 | 0.00 | 0.00 | 93 | 1014.9 |
| 20260905084004 | 75 | 178 | 0.0 | 0.0 | 0.00 | 0.00 | 0.00 | 93 | 1015.0 |
| 20260905083505 | 75 | 178 | 0.0 | 0.0 | 0.00 | 0.00 | 0.00 | 93 | 1014.9 |
| 20260905083004 | 75 | 178 | 0.0 | 0.0 | 0.00 | 0.00 | 0.00 | 93 | 1014.9 |
| 20260905082502 | 75 | 178 | 0.0 | 0.0 | 0.00 | 0.00 | 0.00 | 93 | 1014.9 |
| 20260905082004 | 75 | 179 | 0.0 | 0.0 | 0.00 | 0.00 | 0.00 | 93 | 1015.0 |
| 20260905081508 | 75 | 179 | 0.0 | 0.0 | 0.00 | 0.00 | 0.00 | 93 | 1015.0 |
| 20260905081003 | 76 | 182 | 0.0 | 0.0 | 0.00 | 0.00 | 0.00 | 92 | 1015.0 |
| 20260905080504 | 76 | 182 | 0.0 | 0.0 | 0.00 | 0.00 | 0.00 | 92 | 1014.9 |
| 20260905080013 | 76 | 182 | 0.0 | 0.0 | 0.00 | 0.00 | 0.00 | 92 | 1014.9 |
| 20260905075508 | 76 | 182 | 0.0 | 0.0 | 0.00 | 0.00 | 0.00 | 92 | 1014.8 |
| 20260905075006 | 76 | 182 | 0.0 | 0.0 | 0.00 | 0.00 | 0.00 | 93 | 1015.0 |
| 20260905074511 | 76 | 182 | 0.0 | 0.0 | 0.00 | 0.00 | 0.00 | 92 | 1015.0 |
| 20260905074006 | 76 | 182 | 0.0 | 0.0 | 0.00 | 0.00 | 0.00 | 92 | 1014.9 |
| 20260905073509 | 76 | 182 | 0.0 | 0.0 | 0.00 | 0.00 | 0.00 | 92 | 1014.8 |
| 20260905073009 | 76 | 182 | 0.0 | 0.0 | 0.00 | 0.00 | 0.00 | 92 | 1014.8 |
| 20260905072504 | 76 | 182 | 0.0 | 0.0 | 0.00 | 0.00 | 0.00 | 92 | 1014.8 |
| 20260905072011 | 76 | 182 | 0.0 | 0.0 | 0.00 | 0.00 | 0.00 | 92 | 1014.8 |
| 20260905071507 | 76 | 182 | 0.0 | 0.0 | 0.00 | 0.00 | 0.00 | 92 | 1014.7 |
| 20260905071006 | 76 | 182 | 0.0 | 0.0 | 0.00 | 0.00 | 0.00 | 92 | 1014.7 |
| 20260905070503 | 76 | 182 | 0.0 | 0.0 | 0.00 | 0.00 | 0.00 | 92 | 1014.9 |
| 20260905070014 | 76 | 182 | 0.0 | 0.0 | 0.00 | 0.00 | 0.00 | 92 | 1014.9 |
| 20260905065503 | 76 | 182 | 0.0 | 0.0 | 0.00 | 0.00 | 0.00 | 92 | 1014.9 |
| 20260905065004 | 76 | 182 | 0.0 | 0.0 | 0.00 | 0.00 | 0.00 | 92 | 1014.9 |
| 20260905064517 | 76 | 182 | 0.0 | 0.0 | 0.00 | 0.00 | 0.00 | 91 | 1015.0 |
| 20260905064008 | 76 | 182 | 0.0 | 0.0 | 0.00 | 0.00 | 0.00 | 91 | 1015.1 |
| 20260905063508 | 76 | 182 | 0.0 | 0.0 | 0.00 | 0.00 | 0.00 | 91 | 1015.1 |
| 20260905063018 | 76 | 182 | 0.0 | 0.0 | 0.00 | 0.00 | 0.00 | 91 | 1015.1 |
| 20260905062511 | 76 | 182 | 0.0 | 0.0 | 0.00 | 0.00 | 0.00 | 91 | 1015.1 |
| 20260905062003 | 76 | 182 | 0.0 | 0.0 | 0.00 | 0.00 | 0.00 | 91 | 1015.0 |
| 20260905061516 | 77 | 182 | 0.0 | 0.0 | 0.00 | 0.00 | 0.00 | 91 | 1015.2 |
| 20260905061009 | 77 | 182 | 0.0 | 0.0 | 0.00 | 0.00 | 0.00 | 91 | 1015.2 |
| 20260905060503 | 77 | 182 | 0.0 | 0.0 | 0.00 | 0.00 | 0.00 | 91 | 1015.3 |
| 20260905060008 | 77 | 182 | 0.0 | 0.0 | 0.00 | 0.00 | 0.00 | 91 | 1015.4 |
| 20260905055502 | 77 | 175 | 0.0 | 0.0 | 0.00 | 0.00 | 0.00 | 1015.4 | |
| 20260905055004 | 77 | 175 | 0.0 | 0.0 | 0.00 | 0.00 | 0.00 | 91 | 1015.5 |
| 20260905054517 | 77 | 175 | 0.0 | 0.0 | 0.00 | 0.00 | 0.00 | 91 | 1015.6 |
| 20260905054009 | 77 | 175 | 0.0 | 0.0 | 0.00 | 0.00 | 0.00 | 90 | 1015.6 |
| 20260905053508 | 77 | 175 | 0.0 | 0.0 | 0.00 | 0.00 | 0.00 | 90 | 1015.6 |
| 20260905053020 | 77 | 175 | 0.0 | 0.0 | 0.00 | 0.00 | 0.00 | 90 | 1015.6 |
| 20260905052502 | 77 | 175 | 0.0 | 0.0 | 0.00 | 0.00 | 0.00 | 90 | 1015.7 |
| 20260905052008 | 77 | 175 | 0.0 | 0.0 | 0.00 | 0.00 | 0.00 | 90 | 1015.8 |
| 20260905051531 | 77 | 175 | 0.0 | 0.0 | 0.00 | 0.00 | 0.00 | 90 | 1015.8 |
| 20260905051013 | 77 | 175 | 0.0 | 0.0 | 0.00 | 0.00 | 0.00 | 90 | 1015.9 |
| 20260905050503 | 78 | 175 | 0.0 | 0.0 | 0.00 | 0.01 | 0.00 | 90 | 1015.9 |
| 20260905050022 | 78 | 175 | 0.0 | 0.0 | 0.00 | 0.01 | 0.00 | 90 | 1015.9 |
| 20260905045517 | 78 | 175 | 0.0 | 0.0 | 0.00 | 0.01 | 0.00 | 90 | 1016.1 |
| 20260905045003 | 78 | 175 | 0.0 | 0.0 | 0.00 | 0.01 | 0.00 | 90 | 1016.1 |
| 20260905044509 | 78 | 175 | 0.0 | 0.0 | 0.00 | 0.01 | 0.00 | 89 | 1016.1 |
| 20260905044006 | 78 | 175 | 0.0 | 0.0 | 0.00 | 0.01 | 0.00 | 89 | 1016.1 |
| 20260905043504 | 78 | 175 | 0.0 | 0.0 | 0.00 | 0.01 | 0.00 | 89 | 1016.1 |
| 20260905043014 | 78 | 175 | 0.0 | 0.0 | 0.00 | 0.01 | 0.00 | 89 | 1016.1 |
| 20260905042509 | 78 | 175 | 0.0 | 0.0 | 0.00 | 0.01 | 0.00 | 89 | 1016.1 |
| 20260905042007 | 78 | 175 | 0.0 | 0.0 | 0.00 | 0.01 | 0.00 | 88 | 1016.1 |
| 20260905041512 | 78 | 175 | 0.0 | 0.0 | 0.00 | 0.01 | 0.00 | 88 | 1016.1 |
| 20260905041006 | 78 | 175 | 0.0 | 0.0 | 0.00 | 0.01 | 0.00 | 88 | 1016.2 |
| 20260905040512 | 79 | 175 | 0.0 | 0.0 | 0.00 | 0.01 | 0.00 | 88 | 1016.2 |
| 20260905040034 | 79 | 175 | 0.0 | 0.0 | 0.00 | 0.01 | 0.00 | 89 | 1016.2 |
| 20260905035504 | 79 | 175 | 0.0 | 0.0 | 0.00 | 0.01 | 0.01 | 89 | 1016.2 |
| 20260905035008 | 79 | 175 | 0.0 | 0.0 | 0.00 | 0.01 | 0.01 | 88 | 1016.3 |
| 20260905034533 | 79 | 175 | 0.0 | 0.0 | 0.00 | 0.01 | 0.01 | 88 | 1016.3 |
| 20260905034013 | 79 | 176 | 0.0 | 0.0 | 0.00 | 0.01 | 0.01 | 88 | 1016.2 |
| 20260905033503 | 79 | 176 | 0.0 | 1.0 | 0.00 | 0.01 | 0.01 | 88 | 1016.4 |
| 20260905033016 | 79 | 197 | 0.0 | 1.0 | 0.00 | 0.01 | 0.01 | 88 | 1016.4 |
| 20260905032505 | 79 | 196 | 0.0 | 0.0 | 0.00 | 0.01 | 0.01 | 87 | 1016.4 |
| 20260905032005 | 80 | 197 | 0.0 | 0.0 | 0.00 | 0.01 | 0.01 | 87 | 1016.5 |
| 20260905031531 | 80 | 197 | 0.0 | 0.0 | 0.00 | 0.01 | 0.01 | 87 | 1016.5 |
| 20260905031011 | 80 | 197 | 0.0 | 0.0 | 0.00 | 0.01 | 0.01 | 86 | 1016.5 |
| 20260905030511 | 80 | 197 | 0.0 | 0.0 | 0.00 | 0.01 | 0.01 | 86 | 1016.6 |
| 20260905030021 | 80 | 197 | 0.0 | 0.0 | 0.00 | 0.01 | 0.01 | 86 | 1016.6 |
| 20260905025512 | 80 | 197 | 0.0 | 0.0 | 0.00 | 0.01 | 0.01 | 86 | 1016.6 |
| 20260905025014 | 80 | 197 | 0.0 | 0.0 | 0.00 | 0.01 | 0.01 | 85 | 1016.5 |
| 20260905024517 | 80 | 197 | 0.0 | 0.0 | 0.00 | 0.01 | 0.01 | 85 | 1016.5 |
| 20260905024007 | 80 | 197 | 0.0 | 0.0 | 0.00 | 0.01 | 0.01 | 86 | 1016.5 |
| 20260905023512 | 80 | 197 | 0.0 | 0.0 | 0.00 | 0.01 | 0.01 | 85 | 1016.4 |
| 20260905023034 | 81 | 197 | 0.0 | 0.0 | 0.00 | 0.01 | 0.01 | 85 | 1016.3 |
| 20260905022506 | 81 | 196 | 0.0 | 0.0 | 0.00 | 0.01 | 0.01 | 85 | 1016.3 |
| 20260905022010 | 81 | 197 | 0.0 | 0.0 | 0.00 | 0.01 | 0.01 | 85 | 1016.4 |
| 20260905021517 | 81 | 197 | 0.0 | 0.0 | 0.00 | 0.01 | 0.01 | 85 | 1016.3 |
| 20260905021007 | 81 | 197 | 0.0 | 0.0 | 0.00 | 0.01 | 0.01 | 84 | 1016.2 |
| 20260905020510 | 81 | 197 | 0.0 | 0.0 | 0.00 | 0.01 | 0.01 | 84 | 1016.3 |
| 20260905020030 | 81 | 197 | 0.0 | 0.0 | 0.00 | 0.01 | 0.01 | 83 | 1016.3 |
| 20260905015512 | 81 | 197 | 0.0 | 0.0 | 0.00 | 0.01 | 0.01 | 83 | 1016.2 |
| 20260905015008 | 81 | 197 | 0.0 | 0.0 | 0.00 | 0.01 | 0.01 | 82 | 1016.1 |
| 20260905014529 | 81 | 197 | 0.0 | 0.0 | 0.00 | 0.01 | 0.01 | 82 | 1016.1 |
| 20260905014014 | 81 | 197 | 0.0 | 0.0 | 0.00 | 0.01 | 0.01 | 81 | 1016.1 |
| 20260905013503 | 81 | 197 | 0.0 | 0.0 | 0.00 | 0.01 | 0.01 | 81 | 1016.0 |
| 20260905013023 | 81 | 197 | 0.0 | 0.0 | 0.00 | 0.01 | 0.01 | 80 | 1015.9 |
| 20260905012513 | 82 | 197 | 0.0 | 0.0 | 0.00 | 0.01 | 0.01 | 80 | 1016.0 |
| 20260905012015 | 82 | 197 | 0.0 | 0.0 | 0.00 | 0.01 | 0.01 | 80 | 1015.9 |
| 20260905011517 | 82 | 197 | 0.0 | 0.0 | 0.00 | 0.01 | 0.01 | 80 | 1015.9 |
| 20260905011004 | 82 | 177 | 0.0 | 0.0 | 0.00 | 0.01 | 0.01 | 80 | 1015.7 |
| 20260905010508 | 82 | 177 | 0.0 | 0.0 | 0.00 | 0.01 | 0.01 | 79 | 1015.8 |
| 20260905010013 | 83 | 177 | 0.0 | 0.0 | 0.00 | 0.01 | 0.01 | 79 | 1015.9 |
| 20260905005510 | 83 | 177 | 0.0 | 1.0 | 0.00 | 0.01 | 0.01 | 79 | 1015.8 |
| 20260905005012 | 84 | 153 | 0.0 | 4.0 | 0.00 | 0.01 | 0.01 | 79 | 1015.8 |
| 20260905004514 | 84 | 141 | 0.0 | 4.0 | 0.00 | 0.01 | 0.01 | 78 | 1016.0 |
| 20260905004007 | 84 | 111 | 0.0 | 3.0 | 0.00 | 0.01 | 0.01 | 78 | 1016.2 |
| 20260905003514 | 85 | 71 | 0.0 | 1.0 | 0.00 | 0.01 | 0.01 | 77 | 1016.4 |
| 20260905003015 | 85 | 32 | 0.0 | 0.0 | 0.00 | 0.01 | 0.01 | 76 | 1016.5 |
| 20260905002502 | 85 | 203 | 0.0 | 1.0 | 0.00 | 0.01 | 0.01 | 75 | 1016.5 |
| 20260905002004 | 86 | 202 | 0.0 | 2.0 | 0.00 | 0.01 | 0.01 | 75 | 1016.6 |
| 20260905001510 | 86 | 234 | 0.0 | 2.0 | 0.00 | 0.01 | 0.01 | 75 | 1016.5 |
| 20260905001004 | 86 | 208 | 0.0 | 2.0 | 0.00 | 0.01 | 0.01 | 76 | 1016.2 |
| 20260905000509 | 86 | 298 | 0.0 | 1.0 | 0.00 | 0.01 | 0.01 | 75 | 1016.1 |
| 20260905000026 | 87 | 292 | 0.0 | 1.0 | 0.00 | 0.01 | 0.01 | 74 | 1016.2 |
| 20260904235507 | 87 | 319 | 0.0 | 6.0 | 0.00 | 0.01 | 0.01 | 74 | 1016.1 |
| 20260904235004 | 87 | 290 | 0.0 | 6.0 | 0.00 | 0.01 | 0.01 | 73 | 1016.1 |
| 20260904234519 | 87 | 269 | 0.0 | 3.0 | 0.00 | 0.01 | 0.01 | 73 | 1015.8 |
| 20260904234012 | 87 | 280 | 0.0 | 2.0 | 0.00 | 0.01 | 0.01 | 73 | 1015.7 |
| 20260904233503 | 88 | 321 | 0.0 | 2.0 | 0.00 | 0.01 | 0.01 | 73 | 1015.4 |
| 20260904233016 | 88 | 245 | 0.0 | 3.0 | 0.00 | 0.01 | 0.01 | 73 | 1015.7 |
| 20260904232510 | 88 | 279 | 0.0 | 3.0 | 0.00 | 0.02 | 0.01 | 72 | 1015.5 |
| 20260904232015 | 88 | 306 | 0.0 | 3.0 | 0.00 | 0.02 | 0.01 | 71 | 1015.6 |
| 20260904231513 | 89 | 314 | 0.0 | 3.0 | 0.00 | 0.02 | 0.01 | 71 | 1015.6 |
| 20260904231005 | 89 | 239 | 0.0 | 3.0 | 0.00 | 0.02 | 0.01 | 70 | 1015.6 |
| 20260904230505 | 89 | 241 | 0.0 | 4.0 | 0.00 | 0.02 | 0.01 | 70 | 1015.5 |
| 20260904230025 | 90 | 281 | 0.0 | 4.0 | 0.00 | 0.02 | 0.01 | 69 | 1015.3 |
| 20260904225508 | 90 | 267 | 0.0 | 3.0 | 0.00 | 0.02 | 0.01 | 70 | 1015.3 |
| 20260904225006 | 91 | 259 | 0.0 | 1.0 | 0.00 | 0.03 | 0.01 | 69 | 1015.2 |
| 20260904224519 | 91 | 275 | 0.0 | 2.0 | 0.00 | 0.03 | 0.01 | 68 | 1015.2 |
| 20260904224007 | 92 | 281 | 0.0 | 2.0 | 0.00 | 0.04 | 0.01 | 67 | 1015.1 |
| 20260904223509 | 92 | 222 | 0.0 | 4.0 | 0.00 | 0.04 | 0.01 | 67 | 1015.2 |
| 20260904223031 | 93 | 219 | 1.0 | 7.0 | 0.00 | 0.04 | 0.01 | 66 | 1015.2 |
| 20260904222503 | 94 | 232 | 0.0 | 7.0 | 0.00 | 0.04 | 0.01 | 66 | 1015.1 |
| 20260904222008 | 94 | 247 | 0.0 | 4.0 | 0.00 | 0.04 | 0.01 | 66 | 1015.0 |
| 20260904221527 | 94 | 239 | 0.0 | 4.0 | 0.00 | 0.04 | 0.01 | 65 | 1014.8 |
| 20260904221015 | 94 | 221 | 0.0 | 5.0 | 0.00 | 0.04 | 0.01 | 64 | 1014.5 |
| 20260904220504 | 94 | 235 | 2.0 | 7.0 | 0.00 | 0.04 | 0.01 | 66 | 1014.3 |